AO-07 1 07530U 74089B 19073.55811598 -.00000018 00000-0 17123-3 0 9992 2 07530 101.7321 42.2512 0012128 171.1467 313.3536 12.53637114 28477 UO-11 1 14781U 84021B 19073.96201079 .00000038 00000-0 10786-4 0 9997 2 14781 97.6213 103.1566 0006966 275.0135 85.0284 14.83069127884573 LO-19 1 20442U 90005G 19072.81868592 -.00000003 00000-0 15092-4 0 9997 2 20442 98.6396 15.0312 0012889 76.2513 284.0104 14.32919178522507 HUBBLE 1 20580U 90037B 19073.22906696 .00000435 00000-0 15590-4 0 9990 2 20580 28.4690 129.7753 0002733 161.3458 68.0078 15.09186675386300 MET-2/21 1 22782U 93055A 19073.95474469 .00000039 00000-0 21131-4 0 9995 2 22782 82.5471 239.0320 0023488 87.4434 26.6837 13.83815838289621 AO-27 1 22825U 93061C 19073.92518126 -.00000003 00000-0 16905-4 0 9991 2 22825 98.8966 60.4110 0007363 279.5659 80.4690 14.30053091328265 IO-26 1 22826U 93061D 19073.94914126 .00000001 00000-0 18076-4 0 9992 2 22826 98.8906 60.4389 0007856 266.9356 93.0927 14.30386166328466 FO-29 1 24278U 96046B 19073.94097636 .00000005 00000-0 38212-4 0 9997 2 24278 98.5224 240.4091 0351215 128.2858 235.0428 13.53089516114850 NOAA-15 1 25338U 98030A 19073.56337113 .00000019 00000-0 26670-4 0 9995 2 25338 98.7556 94.9620 0010949 157.2525 202.9142 14.25897789 83554 GO-32 1 25397U 98043D 19072.84250313 -.00000006 00000-0 16659-4 0 9993 2 25397 98.6800 14.2077 0001044 14.7941 345.3268 14.23661574 74095 ISS 1 25544U 98067A 19074.08286682 .00000463 00000-0 14820-4 0 9993 2 25544 51.6418 109.0727 0003977 104.1078 111.0300 15.52804437160631 NO-44 1 26931U 01043C 19072.87882714 -.00000035 00000-0 18239-4 0 9999 2 26931 067.0493 253.5018 0005399 274.0178 086.0306 14.30534884911050 SO-50 1 27607U 02058C 19073.91565544 -.00000047 00000-0 14304-4 0 9994 2 27607 64.5565 342.4157 0082329 274.7620 84.4084 14.75526607872900 CO-55 1 27844U 03031E 19073.97058944 .00000046 00000-0 40409-4 0 9999 2 27844 98.6868 83.6032 0008921 312.7644 47.2782 14.22164475814684 CO-57 1 27848U 03031J 19073.93554306 .00000033 00000-0 34753-4 0 9993 2 27848 98.6948 84.0467 0008985 325.0410 35.0177 14.21761483814530 RS-22 1 27939U 03042A 19073.79283335 .00000050 00000-0 17453-4 0 9998 2 27939 98.0228 211.5688 0013166 18.2023 341.9657 14.66760159826483 NOAA-18 1 28654U 05018A 19073.50681006 .00000024 00000-0 38172-4 0 9996 2 28654 99.1100 118.9733 0015251 89.2579 271.0339 14.12409224711949 CO-58 1 28895U 05043F 19073.38978596 .00000108 00000-0 29658-4 0 9992 2 28895 97.9425 219.5086 0015521 297.6432 62.3195 14.63637675713395 Falconsat-3 1 30776U 07006E 19072.97051718 .00002559 00000-0 73322-4 0 9995 2 30776 35.4364 347.7665 0003630 301.4365 58.6007 15.35728337665807 CO-65 1 32785U 08021C 19073.94576592 .00000194 00000-0 26623-4 0 9990 2 32785 97.5491 78.1837 0012137 215.0525 144.9894 14.88262307589440 AAUSAT2 1 32788U 08021F 19073.04680969 .00000320 00000-0 34491-4 0 9991 2 32788 97.5037 93.0255 0012470 157.4720 202.7051 14.94623374590481 DO-64 1 32789U 08021G 19073.79412095 .00000697 00000-0 50933-4 0 9993 2 32789 97.4771 126.3053 0014024 94.3584 265.9246 15.06713790592526 CO-66 1 32791U 08021J 19073.52056286 .00000277 00000-0 33576-4 0 9991 2 32791 97.5303 83.6388 0013030 191.8463 168.2451 14.90751030589780 RS-30 1 32953U 08025A 19073.78811041 .00000020 00000-0 75656-4 0 9992 2 32953 82.5052 204.3878 0018495 341.4782 18.5623 12.43088039490392 PRISM 1 33493U 09002B 19073.31819171 .00001023 00000-0 95346-4 0 9991 2 33493 98.1232 350.6243 0016150 137.7188 222.5280 14.96539375550733 NOAA-19 1 33591U 09005A 19073.55498703 .00000045 00000-0 49608-4 0 9996 2 33591 99.1743 62.3815 0013027 289.7736 70.2030 14.12338869520336 TISAT-1 1 36799U 10035E 19073.38356009 .00000224 00000-0 28707-4 0 9993 2 36799 98.1402 222.4268 0013121 46.9332 313.2981 14.91024368470412 JUGNU 1 37839U 11058B 19073.53273375 .00000321 00000-0 29292-4 0 9994 2 37839 19.9604 197.8937 0019016 347.4521 93.7085 14.12643782383642 SRMSAT 1 37841U 11058D 19072.88887884 .00000302 00000-0 20689-4 0 9990 2 37841 19.9714 256.5731 0011795 213.3316 283.5392 14.10626183383005 AO-71 1 37854U 11061E 19072.84696196 .00000981 00000-0 58184-4 0 9992 2 37854 101.7144 281.2729 0161510 353.4377 6.4718 15.06186349402414 HRBE 1 37855U 11061F 19073.81894569 .00000750 00000-0 45786-4 0 9993 2 37855 101.7276 280.1429 0174327 0.9386 359.2120 15.05190800402355 ALMASAT-1 1 38078U 12006B 19073.72429796 .00024471 40291-5 16638-3 0 9997 2 38078 69.4283 179.6438 0184510 51.2860 96.9278 15.55897627382525 HORYU-2 1 38340U 12025D 19073.08881996 .00000134 00000-0 27591-4 0 9993 2 38340 98.3414 108.7201 0012752 74.6150 285.6466 14.75677656366914 RS-40 1 38735U 12041C 19073.73208586 .00000008 00000-0 -13440-4 0 9998 2 38735 82.4735 287.9266 0017793 84.3995 275.9110 12.42577897300631 BEESAT-3 1 39135U 13015F 19073.97768273 .00000649 00000-0 42262-4 0 9999 2 39135 64.8704 347.4530 0009837 293.5449 66.4643 15.17257088325723 BEESAT-2 1 39136U 13015G 19073.18809311 .00000817 00000-0 51386-4 0 9996 2 39136 64.8718 353.5268 0011314 292.4846 67.5081 15.16698270325535 ZACUBE-1 1 39417U 13066B 19073.50050969 .00000196 00000-0 31032-4 0 9993 2 39417 97.5689 92.3781 0058647 350.8782 9.1361 14.81067474286809 TRITON-1 1 39427U 13066M 19073.94987707 .00000195 00000-0 38776-4 0 9992 2 39427 97.6672 57.2980 0115257 111.7621 249.5897 14.67790700284295 GOMX-1 1 39430U 13066Q 19073.89827775 .00000102 00000-0 27628-4 0 9990 2 39430 97.7343 36.8288 0151143 195.7680 163.8837 14.59205748282632 LO-74 1 39440U 13066AA 19073.00066153 .00000206 00000-0 35463-4 0 9990 2 39440 97.6015 77.1544 0081309 39.9823 320.7336 14.75804876285710 AO-73 1 39444U 13066AE 19073.95897377 .00000238 00000-0 35768-4 0 9991 2 39444 97.5677 94.6592 0057580 343.6485 16.2869 14.81876332285752 SPROUT 1 39770U 14029E 19073.89457227 .00000433 00000-0 54234-4 0 9998 2 39770 97.8797 177.8660 0010225 46.7969 313.4093 14.87208620260594 DUCHIFAT-1 1 40021U 14033M 19073.81826270 .00000348 00000-0 41418-4 0 9999 2 40021 97.9221 358.1131 0013328 12.6967 347.4584 14.90544480257265 NANOSATCBR1 1 40024U 14033Q 19073.32472163 .00000368 00000-0 44315-4 0 9997 2 40024 97.9131 355.2777 0012737 17.5169 342.6485 14.89770421257095 EO-79 1 40025U 14033R 19073.32917860 .00000261 00000-0 33871-4 0 9993 2 40025 97.9065 353.1710 0013035 22.6983 337.4807 14.88881141256987 DTUSAT-2 1 40030U 14033W 19072.76126484 .00000223 00000-0 30039-4 0 9991 2 40030 97.8992 350.9206 0012470 20.5557 339.6159 14.88479725256831 EO-80 1 40032U 14033Y 19073.30082118 .00000229 00000-0 30682-4 0 9999 2 40032 97.9000 351.4597 0012401 19.4549 340.7138 14.88420285256900 ANTELSAT 1 40034U 14033AA 19073.58721330 .00000177 00000-0 33582-4 0 9991 2 40034 97.7752 304.7643 0059881 47.4209 313.2030 14.74056073254510 VELOX-1 1 40057U 14034E 19073.85788643 .00000268 00000-0 45025-4 0 9993 2 40057 98.2211 194.9617 0011079 173.1419 186.9943 14.77601165253617 DAURIA DX 1 1 40071U 14037C 19073.97031877 .00000082 00000-0 18026-4 0 9990 2 40071 98.4095 223.0493 0008795 163.6560 196.4944 14.81241179253081 UKUBE-1 1 40074U 14037F 19073.88636997 .00000294 00000-0 42551-4 0 9992 2 40074 98.4215 230.4740 0004772 147.4885 212.6629 14.83983796253447 HODOYOSHI-1 1 40299U 14070B 19073.93741067 .00000433 00000-0 21210-4 0 9993 2 40299 97.3536 155.6642 0013988 26.5084 60.2711 15.23240715241691 CHUBUSAT-1 1 40300U 14070C 19073.81069856 .00000608 00000-0 29561-4 0 9993 2 40300 97.3363 150.3878 0021063 36.1427 85.5264 15.21946269241436 QSAT-EOS 1 40301U 14070D 19073.82790608 .00001292 00000-0 53239-4 0 9990 2 40301 97.3337 152.9241 0026868 21.6881 100.1247 15.25598016241679 FIREBIRD FU3 1 40377U 15003B 19073.15497550 .00002962 00000-0 12031-3 0 9995 2 40377 99.1028 33.7279 0129311 52.3722 308.9160 15.18316706227276 FIREBIRD FU4 1 40378U 15003C 19073.86742023 .00002979 00000-0 12085-3 0 9999 2 40378 99.1031 34.6558 0129490 49.8944 311.3549 15.18327325227386 GRIFEX 1 40379U 15003D 19073.85041226 .00001900 00000-0 84614-4 0 9997 2 40379 99.1017 29.2923 0137288 66.6279 294.9321 15.15136757227073 NO-84 1 40654U 15025D 19073.13686901 .00010688 00000-0 15360-3 0 05599 2 40654 054.9867 252.6656 0146038 078.8357 282.9049 15.45346496097515 NO-83 1 40655U 15025E 19073.50531444 .00037441 00000-0 24770-3 0 06673 2 40655 054.9689 155.4589 0074711 134.0605 226.6622 15.71354776098569 DEORBITSAIL 1 40719U 15032E 19073.43730699 .00000316 00000-0 52425-4 0 9995 2 40719 97.9197 327.1609 0014974 256.4312 103.5230 14.76657963198052 NUDT-PHONESAT 1 40900U 15049B 19073.95416366 .00001646 00000-0 74204-4 0 9990 2 40900 97.4403 84.2451 0014118 153.3603 293.9953 15.22366571193092 XW-2A 1 40903U 15049E 19073.78028576 .00001583 00000-0 39744-4 0 9996 2 40903 97.3511 115.9533 0015218 127.3810 323.6049 15.41457214195477 XW-2C 1 40906U 15049H 19073.93017990 .00000685 00000-0 39552-4 0 9993 2 40906 97.4670 77.6095 0015406 164.0248 255.7033 15.15540085192493 XW-2D 1 40907U 15049J 19073.85795060 .00000673 00000-0 38750-4 0 9992 2 40907 97.4644 77.2163 0014824 161.8778 283.1919 15.15717187192490 LILACSAT-2 1 40908U 15049K 19073.93775441 .00000475 00000-0 29910-4 0 9991 2 40908 97.4774 76.2889 0016231 166.9769 253.6113 15.13721454192329 XW-2E 1 40909U 15049L 19073.96843804 .00000679 00000-0 37120-4 0 9992 2 40909 97.4601 79.9091 0014506 158.0045 259.0687 15.17563072192674 XW-2F 1 40910U 15049M 19073.90862186 .00000638 00000-0 35545-4 0 9996 2 40910 97.4627 79.0721 0015457 155.9719 291.6757 15.17077965192496 XW-2B 1 40911U 15049N 19073.95219096 .00000454 00000-0 27329-4 0 9995 2 40911 97.4673 77.9340 0014611 162.1786 282.0846 15.15649287192401 DCBB 1 40912U 15049P 19073.94736578 .00000897 00000-0 45554-4 0 9995 2 40912 97.4513 82.5522 0016281 141.3977 277.5684 15.19362682192779 TW-1C 1 40926U 15051B 19073.87024010 .00009267 00000-0 14681-3 0 9992 2 40926 97.1492 120.2379 0009089 20.7909 34.7473 15.53585804195278 TW-1A 1 40928U 15051D 19073.81015186 .00002724 00000-0 69806-4 0 9993 2 40928 97.1571 107.2163 0013277 65.7341 20.5883 15.40148316194419 IO-86 1 40931U 15052B 19073.16722261 .00000689 00000-0 68525-5 0 9991 2 40931 6.0009 24.8217 0013598 231.1798 128.7114 14.76599871186977 LQSat 1 40958U 15057A 19073.78776825 -.00000003 00000-0 71722-5 0 9992 2 40958 97.9086 145.5291 0017746 184.4141 175.6908 14.73069255184687 AO-85 1 40967U 15058D 19073.37412752 .00000064 00000-0 24964-4 0 06251 2 40967 064.7753 090.8685 0209136 232.5827 125.6019 14.75894734093521 ATHENOXAT-1 1 41168U 15077C 19073.68603431 .00001950 00000-0 68637-4 0 9990 2 41168 14.9878 199.5442 0011552 199.4681 160.5199 15.13395555179410 ChubuSat-2 1 41338U 16012B 19073.21040402 .00000310 00000-0 17389-4 0 9998 2 41338 31.0039 37.8996 0013904 227.4882 132.4579 15.00105724168415 ChubuSat-3 1 41339U 16012C 19073.92311832 .00000281 00000-0 15034-4 0 9997 2 41339 31.0105 31.5870 0013489 242.3077 117.6196 15.00284403168515 Horyu-4 1 41340U 16012D 19073.95918010 .00000473 00000-0 29227-4 0 9995 2 41340 31.0060 23.6760 0014145 258.6950 101.2097 15.01189420168611 OUFTI-1 1 41458U 16025C 19073.75618840 .00001185 00000-0 65062-4 0 9993 2 41458 98.1052 155.7415 0166317 319.9359 38.9687 15.05480414158142 e-st@r-II 1 41459U 16025D 19073.75063010 .00000960 00000-0 53958-4 0 9998 2 41459 98.1049 155.4521 0167408 321.1492 37.7804 15.05148031158110 AAUSAT4 1 41460U 16025E 19073.77536818 .00001026 00000-0 56264-4 0 9990 2 41460 98.0986 156.4909 0158380 314.5341 44.3082 15.06886989158226 LO-87 1 41557U 16033B 19073.91676482 .00001200 00000-0 48088-4 0 9993 2 41557 97.4199 161.9898 0012309 276.8566 83.1272 15.26940866155472 NuSat2 1 41558U 16033C 19073.93941592 .00001206 00000-0 45671-4 0 9994 2 41558 97.4221 162.7512 0011353 278.9723 81.0231 15.28838122155506 Lapan A3 1 41603U 16040E 19073.84777916 -.00000003 00000-0 30421-5 0 9993 2 41603 97.3734 134.8597 0014220 22.1658 102.8280 15.19675787151182 Swayam 1 41607U 16040J 19073.68430616 .00001280 00000-0 57300-4 0 9993 2 41607 97.3774 137.4798 0013806 16.3144 343.8535 15.22994344151262 Pratham 1 41783U 16059A 19073.71076851 .00000018 00000-0 12930-4 0 9997 2 41783 98.0801 135.3532 0032722 327.7224 32.1975 14.62977155131511 AlSat 1N 1 41789U 16059G 19073.84945866 .00000047 00000-0 18102-4 0 9997 2 41789 98.0824 137.2765 0027336 318.4620 41.4488 14.64221723131622 ScatSat 1 41790U 16059H 19073.72218305 -.00000010 00000-0 86530-5 0 9999 2 41790 98.2229 121.0492 0017886 345.3469 14.7205 14.50892235130415 TY-1 1 41844U 16066D 19073.97327659 .00001319 00000-0 57198-4 0 9996 2 41844 97.4075 82.4813 0015831 158.3072 255.8041 15.24032274130116 Pegasus-1 1 41846U 16066F 19072.64384693 .00000231 00000-0 45150-4 0 9999 2 41846 098.7248 111.2398 0368240 166.6805 194.4432 14.37505719122614 CAS-2T 1 41847U 16066G 19073.65589148 -.00000007 00000-0 90467-5 0 9998 2 41847 98.7195 112.7905 0366498 160.4627 201.1037 14.37962643123197 EO-88 1 42017U 17008BX 19073.72517542 .00001352 00000-0 56664-4 0 9995 2 42017 97.4137 141.7751 0007448 137.4112 222.7705 15.25219078115298 SOMP2 1 42701U 98067LJ 19073.89422372 .00871609 48621-3 62701-3 0 9995 2 42701 51.6260 29.4994 0005307 158.4924 201.6297 16.15320125104841 PHOENIX 1 42706U 98067LP 19073.76084598 .00103543 00000-0 35319-3 0 9996 2 42706 51.6258 41.5538 0003741 115.9250 244.2142 15.88966042104599 ZA-AeroSat 1 42713U 98067LU 19073.36461766 .00068559 00000-0 26896-3 0 9993 2 42713 51.6320 49.5261 0003994 105.8826 254.2618 15.86287904104113 NJUST-1 1 42722U 98067MB 19074.01032317 .00052497 00000-0 25199-3 0 9991 2 42722 51.6367 51.5491 0003877 130.6896 300.6867 15.82151524103211 LO-90 1 42725U 98067ME 19073.81557522 .00394898 83667-4 53151-3 0 9998 2 42725 51.6290 35.6579 0005436 135.0574 303.6578 16.05880528103316 nSIGHT1 1 42726U 98067MF 19073.24482691 .00016005 00000-0 14962-3 0 9994 2 42726 51.6374 80.6548 0004570 150.1889 209.9368 15.67445030102676 SNUSAT 1B 1 42727U 98067MG 19073.81119663 .00325499 58005-4 51288-3 0 9998 2 42727 51.6234 36.4433 0005751 132.4059 227.7440 16.03318349103266 SUSat 1 42730U 98067MK 19073.90619103 .00773866 35377-3 67881-3 0 9993 2 42730 51.6216 31.8292 0005160 150.6512 209.4794 16.12459800103179 Aoxiang-1 1 42735U 98067MQ 19073.97523646 .00061983 00000-0 27480-3 0 9994 2 42735 51.6300 49.7463 0003869 140.5161 259.8406 15.83777739104360 BeEagleSat 1 42736U 98067MR 19073.92956428 .00135443 18047-4 39862-3 0 9992 2 42736 51.6280 41.1439 0004325 138.4812 221.6524 15.92416026103168 CAS-4B 1 42759U 17034B 19073.92558694 .00000084 00000-0 18728-4 0 9992 2 42759 43.0186 36.7245 0011009 0.3668 97.0310 15.09505256 96364 CAS-4A 1 42761U 17034D 19073.95385943 .00000282 00000-0 30792-4 0 9998 2 42761 43.0186 36.1649 0011636 2.7476 62.4848 15.09583462 96365 UCLSat 1 42765U 17036A 19073.12812109 .00001095 00000-0 50221-4 0 9994 2 42765 97.3638 133.1513 0010950 201.4261 158.6518 15.22488350 95770 NIUSat 1 42766U 17036B 19072.92742859 .00000841 00000-0 41056-4 0 9990 2 42766 097.3640 131.6144 0015391 193.7925 166.2892 15.20900839095523 LituanicaSAT 2 1 42768U 17036D 19073.89387514 .00001798 00000-0 80674-4 0 9993 2 42768 97.3668 133.4654 0015102 190.6354 169.4565 15.22381018 95732 Aalto 1 1 42775U 17036L 19073.16701296 .00000702 00000-0 34535-4 0 9997 2 42775 97.3627 132.1538 0013704 192.3338 167.7564 15.21164952 95532 URSA MAIOR 1 42776U 17036M 19073.13575335 .00000757 00000-0 36880-4 0 9993 2 42776 97.3636 132.2409 0013537 192.2890 167.8017 15.21284857 95538 Max Valier Sat 1 42778U 17036P 19073.79838678 .00000788 00000-0 37695-4 0 9998 2 42778 97.3669 133.5249 0012141 193.3181 166.7737 15.21812470 95655 Pegasus 1 42784U 17036V 19073.79424628 .00000973 00000-0 45261-4 0 9995 2 42784 97.3642 133.6559 0011569 199.7533 160.3257 15.22253434 95671 NUDATSat 1 42787U 17036Y 19073.12641903 .00001464 00000-0 64988-4 0 9995 2 42787 97.3683 133.5287 0009667 203.0841 156.9970 15.23097184 95440 SUCHAI 1 1 42788U 17036Z 19072.70889177 .00001203 00000-0 54647-4 0 9998 2 42788 97.3648 132.8288 0011074 202.7987 157.2759 15.22622480 95594 SKCUBE 1 42789U 17036AA 19072.71889108 .00001106 00000-0 50625-4 0 9998 2 42789 097.3644 132.7995 0010939 202.6774 157.3980 15.22541219095516 VZLUSAT 1 1 42790U 17036AB 19072.71924914 .00001461 00000-0 64839-4 0 9991 2 42790 097.3656 133.1329 0010569 201.8174 158.2614 15.23104219095533 VENTA 1 1 42791U 17036AC 19072.82571819 .00001142 00000-0 52130-4 0 9993 2 42791 097.3643 132.9546 0010563 202.7812 157.2957 15.22566197095525 Robusta 1B 1 42792U 17036AD 19072.85729280 .00001130 00000-0 51399-4 0 9997 2 42792 097.3644 133.0582 0010513 202.6705 157.4068 15.22704291095551 D-SAT 1 42794U 17036AF 19073.84388107 .00000162 00000-0 19306-4 0 9994 2 42794 97.5534 122.6956 0128297 101.0113 260.5567 14.91036853 94057 BIRD-J 1 42820U 98067MU 19073.95471426 .00122106 16608-4 39499-3 0 9998 2 42820 51.6283 45.8774 0004450 105.5383 254.6115 15.90639957 96560 BIRD-G 1 42821U 98067MV 19073.16156227 .00092906 00000-0 35235-3 0 9994 2 42821 51.6251 53.3272 0004117 97.9672 262.1800 15.86864216 96375 BIRD-M 1 42822U 98067MW 19073.97139806 .00107828 00000-0 36922-3 0 9992 2 42822 51.6302 47.5428 0004316 107.9994 252.1482 15.88870590 96527 BIRD-B 1 42823U 98067MX 19073.16073584 .00115491 00000-0 38059-3 0 9992 2 42823 51.6275 51.1080 0005216 110.9995 249.1569 15.89600000 96404 BIRD-N 1 42824U 98067MY 19073.95785326 .00107229 00000-0 37310-3 0 9993 2 42824 51.6312 48.2684 0005007 120.7806 239.3693 15.88547322 96508 TechnoSat 1 42829U 17042E 19073.70765337 .00000150 00000-0 20579-4 0 9990 2 42829 97.5753 330.5180 0014909 25.3547 334.8400 14.90933802 90631 TOMSK-TPU 120 1 42910U 98067MZ 19073.80388329 .00031480 00000-0 20570-3 0 9990 2 42910 51.6363 65.9437 0005406 137.2747 284.9758 15.75527337 89872 TANYUSHA 1 1 42911U 98067NA 19073.91335479 .00049992 00000-0 26254-3 0 9993 2 42911 51.6280 59.8321 0004906 115.5356 331.4014 15.80215012 89945 TANYUSHA 2 1 42912U 98067NB 19073.91507674 .00040794 00000-0 23759-3 0 9990 2 42912 51.6363 62.9615 0003799 123.3227 325.3648 15.78017644 89923 TNS 0-2 1 42914U 98067ND 19073.98182754 .00037200 00000-0 24005-3 0 9990 2 42914 51.6351 65.8494 0004163 128.5907 231.5466 15.75735060 89884 QIKCOM-1 1 42983U 98067NF 19073.58535258 .00003161 00000-0 47779-4 0 9996 2 42983 51.6396 102.4751 0004487 119.8542 240.2896 15.58106502 78358 AO-91 1 43017U 17073E 19073.49604961 .00000430 00000-0 38578-4 0 9994 2 43017 97.7219 358.6294 0260022 111.5201 251.3944 14.78412963 71047 EcAMSat 1 43019U 98067NG 19073.36684747 .00005123 00000-0 68407-4 0 9992 2 43019 51.6400 100.2980 0005256 98.8277 261.3312 15.59991513160681 PICSAT 1 43132U 18004X 19073.80619167 .00001143 00000-0 51207-4 0 9992 2 43132 97.4989 141.7769 0008705 223.7105 136.3443 15.23297232 64905 AO-92 1 43137U 18004AC 19072.74163807 .00000906 00000-0 41279-4 0 9998 2 43137 97.4983 140.7204 0008111 229.7852 130.2675 15.23245126 64739 TianYi 2 1 43155U 18008A 19073.85191840 .00000616 00000-0 40671-4 0 9996 2 43155 97.4956 148.3763 0016058 297.5263 126.1875 15.10973896 63352 Zhou Enlai 1 43156U 18008B 19073.93781343 .00001030 00000-0 66361-4 0 9994 2 43156 97.4996 148.3722 0013358 294.6955 152.3718 15.10470757 63342 TianYi 6 1 43158U 18008D 19073.76444297 .00000409 00000-0 28977-4 0 9991 2 43158 97.4942 147.7911 0012747 293.1495 182.4492 15.10088364 63287 S-Net G 1 43186U 18014G 19073.88370020 .00000436 00000-0 43340-4 0 9995 2 43186 97.7148 343.7021 0010242 333.2418 26.8273 14.96591855 60808 S-Net H 1 43187U 18014H 19073.74981031 .00000406 00000-0 40710-4 0 9996 2 43187 97.7146 343.5608 0010259 333.6129 26.4568 14.96591494 60786 S-Net J 1 43188U 18014J 19073.74959261 .00000407 00000-0 40843-4 0 9995 2 43188 97.7149 343.5741 0010263 333.8489 26.2213 14.96592032 60788 S-Net K 1 43189U 18014K 19073.88362520 .00000432 00000-0 42985-4 0 9994 2 43189 97.7146 343.6906 0010215 333.1638 26.9054 14.96591330 59357 FMN 1 1 43192U 18015A 19073.93519465 .00001798 00000-0 77352-4 0 9999 2 43192 97.3837 203.0123 0014591 271.9056 88.0506 15.23849294 61730 Shaonian Xing 1 43199U 18015H 19073.91585771 .00001291 00000-0 55349-4 0 9997 2 43199 97.3618 202.3138 0015663 285.4596 74.4906 15.24467018 61770 1KUNS-PF 1 43466U 98067NP 19073.33006755 .00014032 00000-0 15999-3 0 9998 2 43466 51.6379 102.2685 0001631 56.1627 303.9522 15.62528399 47834 UBAKUSAT 1 43467U 98067NQ 19073.49145447 .00010132 00000-0 12672-3 0 9990 2 43467 51.6376 103.3412 0003356 60.2620 299.8707 15.60477632 47847 Irazu 1 43468U 98067NR 19073.45484097 .00018646 00000-0 19780-3 0 9999 2 43468 51.6373 100.0947 0001752 50.6870 309.4280 15.64135278147868 EnduroSat One 1 43551U 98067NZ 19073.17901749 .00011121 00000-0 14087-3 0 9995 2 43551 51.6380 107.2475 0005752 132.6550 227.4929 15.60015412 37998 EQUISat 1 43552U 98067PA 19072.52238693 .00010795 00000-0 14071-3 0 9994 2 43552 51.6390 111.1193 0006170 131.4958 228.6565 15.59286964 37848 UiTMSat 1 1 43589U 98067PD 19072.52387833 .00012074 00000-0 15757-3 0 9999 2 43589 51.6364 111.8570 0005275 138.4874 221.6520 15.59125822 33579 Maya 1 1 43590U 98067PE 19073.48170545 .00010412 00000-0 13657-3 0 9998 2 43590 51.6372 107.0053 0005428 142.5275 217.6097 15.59169893 33653 Bhutan 1 1 43591U 98067PF 19072.51430981 .00012259 00000-0 15942-3 0 9995 2 43591 51.6379 111.8023 0005783 141.6901 218.4503 15.59200396 33500 SiriusSat 1 1 43595U 98067PG 19073.93080539 .00011422 00000-0 15244-3 0 9992 2 43595 51.6366 105.5033 0004049 95.8052 264.3402 15.58593529 32893 SiriusSat 2 1 43596U 98067PH 19073.50237860 .00010253 00000-0 13840-3 0 9998 2 43596 51.6376 107.9140 0004611 97.5257 262.6259 15.58422213 32826 Tanusha-3 1 43597U 98067PJ 19073.51048152 .00011828 00000-0 15351-3 0 9992 2 43597 51.6365 107.1759 0003802 106.2310 253.9102 15.59301603 32833 SurfSat 1 43614U 18070B 19073.45331342 .00002279 00000-0 62921-4 0 9993 2 43614 93.0354 323.9374 0014661 325.8246 34.2062 15.37069866 27628 CP-7 DAVE 1 43615U 18070C 19073.45505989 .00002084 00000-0 57625-4 0 9993 2 43615 93.0358 323.9391 0014770 325.3694 34.6596 15.37021939 27620 ELFIN-B 1 43616U 18070D 19073.88559759 .00003450 00000-0 93995-4 0 9993 2 43616 93.0318 324.0500 0015668 326.8350 33.1920 15.37429835 27692 ELFIN-A 1 43617U 18070E 19073.88158095 .00003279 00000-0 89278-4 0 9990 2 43617 93.0371 324.1890 0014577 323.8876 36.1391 15.37465562 27695 STARS-Me Mother 1 43640U 98067PQ 19073.45129679 .00006659 00000-0 97791-4 0 9993 2 43640 51.6382 109.8121 0006132 91.3505 268.8189 15.56817936 24729 CubeBel 1 1 43666U 18083E 19073.81339978 .00000800 00000-0 43408-4 0 9994 2 43666 97.5295 98.9115 0016046 155.6933 322.8432 15.17356584 20748 Changshagaoxin 1 43669U 18083H 19073.19735266 .00000791 00000-0 43856-4 0 9994 2 43669 97.5155 97.8962 0011913 148.6176 211.5771 15.16616038 20600 Ten-Koh 1 43677U 18084G 19073.80144507 .00000296 00000-0 36394-4 0 9993 2 43677 97.8391 188.2254 0014886 234.6329 125.3532 14.90132486 20339 Diwata-2 1 43678U 18084H 19073.87411326 .00000056 00000-0 11242-4 0 9996 2 43678 97.8394 188.6039 0008211 261.2780 98.7531 14.91530474 20365 IRVINE 01 1 43693U 18088D 19073.04528979 .00002356 00000-0 10430-3 0 9991 2 43693 85.0381 21.9106 0018310 180.5563 179.5662 15.20934221 18679 QO-100 1 43700U 18090A 19073.91145441 .00000134 00000-0 00000 0 0 9998 2 43700 0.0273 247.7963 0001299 119.8361 158.5658 1.00269347 1333 Reaktor Hello World 1 43743U 18096AA 19073.93322007 .00000940 00000-0 38921-4 0 9991 2 43743 97.4693 144.0009 0017207 318.2061 146.7609 15.26355732 16129 MinXSS-2 1 43758U 18099A 19073.19561434 .00000262 00000-0 29026-4 0 9990 2 43758 97.7537 146.3521 0014287 290.7918 69.1772 14.95323328 15016 AO-95 1 43770U 18099N 19073.17064475 -.00000016 00000-0 38541-5 0 9996 2 43770 97.7543 146.2351 0013277 298.4049 61.5833 14.94695289 15005 RANGE-B 1 43772U 18099Q 19073.16583532 .00000271 00000-0 30234-4 0 9999 2 43772 97.7594 146.3040 0012744 284.1648 75.8156 14.94779246 14993 RANGE-A 1 43773U 18099R 19073.16635609 .00000015 00000-0 67259-5 0 9997 2 43773 97.7492 146.1789 0012108 284.7164 75.2714 14.94751060 14990 MOVE-II 1 43780U 18099Y 19073.15514389 .00000727 00000-0 71847-4 0 9992 2 43780 97.7530 146.2320 0012127 296.2093 63.7880 14.94945064 14987 SNUSat 2 1 43782U 18099AA 19073.75335752 .00000532 00000-0 53938-4 0 9990 2 43782 97.7539 146.8516 0011277 282.3736 77.6222 14.94986989 15083 SnugLite 1 43784U 18099AC 19073.74835130 .00000638 00000-0 63473-4 0 9998 2 43784 97.7504 146.8108 0013658 290.9167 69.0591 14.95060950 15099 ITASat 1 1 43786U 18099AE 19073.21170160 .00000597 00000-0 59769-4 0 9994 2 43786 97.7557 146.3551 0013769 291.7070 68.2684 14.95075424 15019 EAGLET 1 1 43790U 18099AJ 19073.18589964 -.00000202 00000-0 -12992-4 0 9993 2 43790 97.7546 146.3765 0012222 297.8623 62.1359 14.95452018 14708 ESEO 1 43792U 18099AL 19073.18396722 -.00000326 00000-0 -24220-4 0 9997 2 43792 97.7527 146.3585 0012047 295.0949 64.9021 14.95473937 14760 CSIM 1 43793U 18099AM 19073.17979789 -.00000041 00000-0 15759-5 0 9998 2 43793 97.7484 146.2892 0011708 291.7394 68.2580 14.95574977 14733 Astrocast 0.1 1 43798U 18099AS 19073.43755348 -.00000231 00000-0 -15490-4 0 9998 2 43798 97.7536 146.6442 0010966 275.8986 84.0984 14.95693798 15037 JO-97 1 43803U 18099AX 19073.94055919 .00000616 00000-0 61257-4 0 9995 2 43803 97.7513 147.0330 0013749 289.8063 70.1675 14.95191300 15117 Suomi 100 1 43804U 18099AY 19073.94018134 .00000586 00000-0 58504-4 0 9991 2 43804 97.7512 147.0322 0013831 289.9708 70.0023 14.95194435 15126 Al Farabi 2 1 43805U 18099AZ 19073.93852103 .00000640 00000-0 63424-4 0 9991 2 43805 97.7512 147.0349 0013875 289.9736 69.9990 14.95229854 15129 PWSat 2 1 43814U 18099BJ 19073.51416525 .00011682 00000-0 10271-2 0 9997 2 43814 97.7690 146.7760 0007799 231.9918 128.0579 14.96673770 14452 CHOMPTT 1 43855U 18104G 19073.52743654 .00000041 00000-0 00000 0 0 9999 2 43855 85.0376 120.0194 0015974 315.1015 44.8965 15.22187043 13390 ISAT 1 43879U 18111D 19073.20537767 .00000222 00000-0 24987-4 0 9990 2 43879 97.7236 342.5806 0013059 352.9721 7.1315 14.95907495 9517 UWE-4 1 43880U 18111E 19073.86156563 -.00000086 00000-0 -24587-5 0 9992 2 43880 97.7247 343.2668 0012290 352.2317 7.8712 14.96153693 9629 Sparrow 1 43881U 18111F 19073.52491270 -.00000167 00000-0 -96117-5 0 9991 2 43881 97.7252 342.9433 0012440 352.2641 7.8387 14.96199224 9560 Lume 1 1 43908U 18111AJ 19073.88658306 .00001113 00000-0 48428-4 0 9996 2 43908 97.2966 341.7234 0021072 333.9234 26.0940 15.24113240 11857 FO-98 1 43933U 19003B 19073.86466986 .00000572 00000-0 28349-4 0 9992 2 43933 97.2941 134.4613 0019904 64.7439 23.2776 15.21475155 8487 FO-99 1 43937U 19003F 19073.86413348 .00001027 00000-0 45830-4 0 9990 2 43937 97.2892 134.5683 0026417 52.3967 35.5848 15.23311798 8491 Delphini 1 1 44030U 98067PW 19073.17899000 .00008141 00000-0 12822-3 0 9997 2 44030 51.6385 113.2416 0004559 137.2245 222.9101 15.54530522 6528 MYSat 1 1 44045U 18092F 19072.50002991 .00001612 00000-0 58872-4 0 9996 2 44045 51.6434 121.3908 0012967 96.3033 263.9413 15.34417423 4315 KickSat 2 1 44046U 18092G 19073.90311312 .00248118 36706-4 48804-3 0 9995 2 44046 51.6388 101.4450 0010831 59.6387 300.5661 15.99492525 4687 /EX
